Soldotna, AK

1:07 AM AKDT on May 30, 2017 (GMT -0800)
Soldotna

Weather History for PASX - February, 2013

Change the Weather History Date:

Sunday, February 24, 2013

  Actual Average Record
Temperature  
Mean Temperature 22 °F -  
Max Temperature 30 °F 29 °F 47 °F (1963)
Min Temperature 14 °F 8 °F -27 °F (1971)
Degree Days  
Heating Degree Days 43    
Moisture  
Dew Point 21 °F    
Average Humidity 88    
Maximum Humidity 100    
Minimum Humidity 79    
Precipitation  
Precipitation 0.00 in - - ()
Sea Level Pressure  
Sea Level Pressure 29.45 in    
Wind  
Wind Speed 4 mph (ENE)    
Max Wind Speed 10 mph    
Max Gust Speed -    
Visibility 8 miles    
Events      
Averages and records for this station are not official NWS values.
T = Trace of Precipitation, MM = Missing Value Source: NWS Daily Summary

Daily Weather History Graph

Daily Weather History Graph

Search for Another Location

Airport or City:

Trip Planner

Search our weather history database for the weather conditions in past years. The results will help you decide how hot, cold, wet, or windy it might be!

Date:

Astronomy

Feb. 24, 2013 Rise Set
Actual Time 8:16 AM AKST 6:18 PM AKST
Civil Twilight 7:33 AM AKST 7:01 PM AKST
Nautical Twilight 6:45 AM AKST 7:50 PM AKST
Astronomical Twilight 5:55 AM AKST 8:40 PM AKST
Moon 5:43 PM AKST (2/24) 7:23 AM AKST (2/24)
Length of Visible Light 11h 28m
Length of Day
10h 02m
Waxing Gibbous, 99% of the Moon is Illuminated
Feb 24
Waxing Gibbous
Feb 25
Full
Mar 4
Last Quarter
Mar 11
New
Mar 19
First Quarter

Hourly Weather History & Observations

Time (AKST) Temp. Windchill Dew Point Humidity Pressure Visibility Wind Dir Wind Speed Gust Speed Precip Events Conditions
12:16 AM 19.4 °F 14.3 °F 17.6 °F 93% 29.31 in 10.0 mi East 3.5 mph - N/A   Overcast
12:36 AM 19.4 °F - 17.6 °F 93% 29.31 in 10.0 mi Calm Calm - N/A   Overcast
1:56 AM 21.2 °F 13.6 °F 19.4 °F 93% 29.34 in 9.0 mi East 5.8 mph - N/A   Overcast
2:16 AM 19.4 °F 14.3 °F 19.4 °F 100% 29.33 in 1.5 mi ENE 3.5 mph - N/A   Overcast
2:36 AM 21.2 °F 14.9 °F 19.4 °F 93% 29.34 in 3.0 mi East 4.6 mph - N/A   Overcast
2:56 AM 19.4 °F 14.3 °F 17.6 °F 93% 29.33 in 6.0 mi East 3.5 mph - N/A   Overcast
3:16 AM 19.4 °F 11.5 °F 17.6 °F 93% 29.33 in 10.0 mi ESE 5.8 mph - N/A   Overcast
3:36 AM 19.4 °F 11.5 °F 17.6 °F 93% 29.33 in 10.0 mi ESE 5.8 mph - N/A   Overcast
3:56 AM 19.4 °F 14.3 °F 17.6 °F 93% 29.33 in 10.0 mi ESE 3.5 mph - N/A   Overcast
4:16 AM 19.4 °F - 17.6 °F 93% 29.33 in 10.0 mi Calm Calm - N/A   Overcast
4:36 AM 19.4 °F 14.3 °F 17.6 °F 93% 29.34 in 10.0 mi East 3.5 mph - N/A   Overcast
4:56 AM 19.4 °F 12.8 °F 17.6 °F 93% 29.34 in 10.0 mi East 4.6 mph - N/A   Overcast
5:16 AM 21.2 °F 16.4 °F 19.4 °F 93% 29.34 in 10.0 mi East 3.5 mph - N/A   Overcast
5:36 AM 21.2 °F - 17.6 °F 86% 29.35 in 10.0 mi Calm Calm - N/A   Overcast
5:56 AM 21.2 °F - 19.4 °F 93% 29.35 in 10.0 mi Calm Calm - N/A   Overcast
6:16 AM 21.2 °F 16.4 °F 19.4 °F 93% 29.35 in 10.0 mi ENE 3.5 mph - N/A   Overcast
6:36 AM 21.2 °F 14.9 °F 21.2 °F 100% 29.35 in 10.0 mi ENE 4.6 mph - N/A   Overcast
6:56 AM 23.0 °F 17.0 °F 21.2 °F 93% 29.36 in 10.0 mi ENE 4.6 mph - N/A   Overcast
7:16 AM 23.0 °F 15.8 °F 21.2 °F 93% 29.36 in 10.0 mi NE 5.8 mph - N/A   Overcast
7:36 AM 23.0 °F 14.7 °F 21.2 °F 93% 29.36 in 10.0 mi ENE 6.9 mph - N/A   Overcast
7:56 AM 24.8 °F 17.9 °F 21.2 °F 86% 29.36 in 10.0 mi ENE 5.8 mph - N/A   Overcast
8:16 AM 23.0 °F 17.0 °F 19.4 °F 86% 29.37 in 10.0 mi East 4.6 mph - N/A   Overcast
8:36 AM 23.0 °F 18.4 °F 21.2 °F 93% 29.37 in 7.0 mi NE 3.5 mph - N/A   Mostly Cloudy
8:56 AM 24.8 °F 19.1 °F 21.2 °F 86% 29.37 in 10.0 mi NE 4.6 mph - N/A   Mostly Cloudy
9:16 AM 24.8 °F - 21.2 °F 86% 29.38 in 10.0 mi Calm Calm - N/A   Overcast
9:36 AM 24.8 °F 20.5 °F 21.2 °F 86% 29.38 in 10.0 mi NE 3.5 mph - N/A   Mostly Cloudy
9:56 AM 24.8 °F 20.5 °F 21.2 °F 86% 29.39 in 10.0 mi NE 3.5 mph - N/A   Overcast
10:16 AM 24.8 °F 17.9 °F 21.2 °F 86% 29.40 in 10.0 mi NNE 5.8 mph - N/A   Overcast
10:36 AM 24.8 °F 16.9 °F 21.2 °F 86% 29.41 in 10.0 mi NE 6.9 mph - N/A   Overcast
10:56 AM 24.8 °F 16.9 °F 21.2 °F 86% 29.41 in 10.0 mi NE 6.9 mph - N/A   Overcast
11:16 AM 26.6 °F 16.8 °F 23.0 °F 86% 29.42 in 10.0 mi NE 10.4 mph - N/A   Mostly Cloudy
11:36 AM 26.6 °F 17.5 °F 23.0 °F 86% 29.43 in 10.0 mi NE 9.2 mph - N/A   Mostly Cloudy
11:56 AM 26.6 °F 18.2 °F 23.0 °F 86% 29.43 in 10.0 mi NE 8.1 mph - N/A   Overcast
12:16 PM 26.6 °F 19.1 °F 23.0 °F 86% 29.44 in 10.0 mi NE 6.9 mph - N/A   Overcast
12:36 PM 28.4 °F 22.2 °F 24.8 °F 86% 29.44 in 10.0 mi NE 5.8 mph - N/A   Overcast
12:56 PM 28.4 °F 21.2 °F 24.8 °F 86% 29.45 in 10.0 mi NE 6.9 mph - N/A   Overcast
1:16 PM 28.4 °F 20.4 °F 24.8 °F 86% 29.45 in 10.0 mi NE 8.1 mph - N/A   Overcast
1:36 PM 28.4 °F 19.7 °F 24.8 °F 86% 29.45 in 10.0 mi NE 9.2 mph - N/A   Overcast
1:56 PM 28.4 °F 21.2 °F 24.8 °F 86% 29.46 in 10.0 mi NE 6.9 mph - N/A   Overcast
2:16 PM 28.4 °F 22.2 °F 24.8 °F 86% 29.46 in 10.0 mi NNE 5.8 mph - N/A   Overcast
2:36 PM 30.2 °F 22.6 °F 24.8 °F 80% 29.46 in 10.0 mi NE 8.1 mph - N/A   Overcast
2:56 PM 30.2 °F 23.4 °F 24.8 °F 80% 29.47 in 10.0 mi NNE 6.9 mph - N/A   Overcast
3:16 PM 30.2 °F 25.4 °F 24.8 °F 80% 29.48 in 10.0 mi NE 4.6 mph - N/A   Overcast
3:36 PM 30.2 °F 23.4 °F 24.8 °F 80% 29.49 in 5.0 mi NNE 6.9 mph - N/A   Overcast
3:56 PM 30.2 °F 26.7 °F 24.8 °F 80% 29.49 in 5.0 mi NNE 3.5 mph - N/A   Overcast
4:16 PM 30.2 °F 25.4 °F 24.8 °F 80% 29.50 in 10.0 mi NE 4.6 mph - N/A   Overcast
4:36 PM 30.2 °F - 24.8 °F 80% 29.50 in 1.8 mi Calm Calm - N/A   Overcast
4:56 PM 30.2 °F 24.3 °F 26.6 °F 86% 29.51 in 4.0 mi ENE 5.8 mph - N/A   Overcast
5:16 PM 30.2 °F 26.7 °F 26.6 °F 86% 29.51 in 3.0 mi NNE 3.5 mph - N/A   Overcast
5:36 PM 30.2 °F 23.4 °F 26.6 °F 86% 29.52 in 10.0 mi NE 6.9 mph - N/A   Overcast
5:56 PM 30.2 °F 25.4 °F 26.6 °F 86% 29.52 in 10.0 mi NE 4.6 mph - N/A   Mostly Cloudy
6:16 PM 30.2 °F 26.7 °F 26.6 °F 86% 29.53 in 10.0 mi NE 3.5 mph - N/A   Mostly Cloudy
6:36 PM 28.4 °F 24.6 °F 26.6 °F 93% 29.54 in 10.0 mi NE 3.5 mph - N/A   Overcast
6:56 PM 28.4 °F 24.6 °F 24.8 °F 86% 29.54 in 10.0 mi NE 3.5 mph - N/A   Overcast
7:16 PM 28.4 °F 23.3 °F 24.8 °F 86% 29.55 in 10.0 mi NE 4.6 mph - N/A   Overcast
7:36 PM 28.4 °F - 24.8 °F 86% 29.56 in 10.0 mi Calm Calm - N/A   Overcast
7:56 PM 28.4 °F 24.6 °F 24.8 °F 86% 29.57 in 10.0 mi NNE 3.5 mph - N/A   Overcast
8:16 PM 26.6 °F - 23.0 °F 86% 29.57 in 10.0 mi Calm Calm - N/A   Overcast
8:36 PM 26.6 °F - 23.0 °F 86% 29.58 in 10.0 mi Calm Calm - N/A   Overcast
8:56 PM 24.8 °F - 21.2 °F 86% 29.58 in 10.0 mi Calm Calm - N/A   Overcast
9:16 PM 24.8 °F - 21.2 °F 86% 29.58 in 10.0 mi Calm Calm - N/A   Overcast
9:36 PM 23.0 °F - 19.4 °F 86% 29.58 in 5.0 mi Calm Calm - N/A   Overcast
9:56 PM 21.2 °F 14.9 °F 15.8 °F 80% 29.58 in 1.5 mi East 4.6 mph - N/A   Mostly Cloudy
10:16 PM 23.0 °F 18.4 °F 19.4 °F 86% 29.59 in 10.0 mi East 3.5 mph - N/A   Clear
10:36 PM 21.2 °F - 21.2 °F 100% 29.59 in 4.0 mi Calm Calm - N/A   Clear
10:56 PM 19.4 °F - 15.8 °F 86% 29.58 in 10.0 mi Calm Calm - N/A   Clear
11:16 PM 19.4 °F - 17.6 °F 93% 29.59 in 0.8 mi Calm Calm - N/A   Unknown
11:36 PM 14.0 °F - 8.6 °F 79% 29.59 in 0.5 mi Calm Calm - N/A   Unknown
11:56 PM 15.8 °F - 12.2 °F 86% 29.60 in 0.5 mi Calm Calm - N/A   Unknown